Find NOAA 7

NORAD ID: 12553 Int'l Des: 1981-059 Owner: NOAA Country: US operational
LEOCIRCULARRETROGRADESSO

現在のビュー

3D地球を読み込み中...

About NOAA 7

NOAA 7 (NORAD 12553) is a satellite launched Jun 23, 1981 by NOAA of US. It operates in LEO, CIRCULAR, RETROGRADE, SSO orbit with a mass of 685.00 kg.

次回通過

Passes for default location (London). Set your location on the main map for personalized predictions.

高度履歴

Loading altitude history...

軌道要素

1 12553U 81059A 26194.77359492 .00000006 00000-0 24613-4 0 9993
2 12553 98.7946 261.6547 0011308 186.4902 173.6128 14.17794752328519
Epoch: Jul 13, 2026 • Age: 9 hours

現在のステータス

高度 832.9 km
遠地点 / 近地点 N/A
速度 7.44 km/s
衛星直下点 -21.01°S, 86.91°E
打ち上げ日 Jun 23, 1981
運用期間 45 years
タイプ weather

技術仕様

分類 Payload
質量 685.00 kg
乾燥質量 685.00 kg
総質量 1418.00 kg
長さ 3.70 m
直径 1.90 m
スパン 4.90 m
形状 Box + Pan
製造者 RCA
バスタイプ Tiros N
フェーズステータス In Orbit
所有者/国 NOAA/US

Most Searched